[[{"header":{"parameterUnit":"m.s-1","parameterCategory":1,"la1":30.2991,"la2":30.254,"lo1":-89.0895,"lo2":-89.0444,"dy":0.0017,"dx":0.0017,"nx":28,"ny":28,"refTime":"2024-10-10T21:00:00:Z","depth":0,"parameterNumber":2,"parameterNumberName":"U-component_of_WINDS"},"data":[0,0,0,0,0,0,0,0,0,0,0,0,0,0,0,0,0,0,0,0,0,0,0,0,0,0,0,0,0,0,0,0,0,0,0,0,0,0,0,0,0,0,0,0,0,0,0,0,0,0,0,0,0,0,0,0,0,0,-3.1817,-3.1817,0,-3.1881,-3.1881,-3.1882,-3.1775,-3.1771,-3.1768,-3.1764,-3.183,-3.1835,-3.184,0,0,0,0,0,0,0,0,0,0,0,0,0,-3.1602,-3.1607,-3.1817,-3.1817,-3.1818,-3.1881,-3.1881,-3.1882,-3.1775,-3.1771,-3.1767,-3.1762,-3.1829,-3.1835,-3.1841,0,0,0,0,0,0,0,0,0,0,0,0,0,-3.1684,-3.1608,-3.1817,-3.1772,-3.1769,-3.188,-3.1882,-3.1883,-3.1776,-3.1771,-3.1765,-3.176,-3.1827,-3.1834,-3.1842,-3.1999,0,0,-3.1865,-3.1869,0,0,0,0,0,0,0,0,-3.1679,-3.1692,-3.1778,-3.1776,-3.1772,-3.1814,-3.183,-3.1922,-3.1778,-3.1774,-3.1764,-3.1758,-3.1829,-3.1837,-3.1861,-3.2002,-3.2005,-3.1866,-3.1871,-3.1874,-3.1876,0,0,0,0,0,0,0,-3.1674,-3.1688,-3.1842,-3.178,-3.1776,-3.175,-3.1755,-3.1847,-3.1832,-3.1774,-3.1766,-3.1775,-3.1827,-3.1853,-3.1861,-3.2006,-3.1866,-3.1873,-3.1877,-3.1881,-3.2279,-3.2285,0,0,0,0,0,0,-3.1673,-3.1684,-3.184,-3.1844,-3.1711,-3.1758,-3.1764,-3.1806,-3.183,-3.1829,-3.178,-3.177,-3.1843,-3.1852,-3.1863,-3.2048,-3.1874,-3.1881,-3.1886,-3.2274,-3.2281,-3.2287,0,0,0,0,0,0,-3.1669,-3.1688,-3.1837,-3.1762,-3.1779,-3.1767,-3.1816,-3.181,-3.1837,-3.1835,-3.1831,-3.181,-3.1839,-3.1852,-3.1966,-3.2049,-3.1885,-3.1892,-3.2267,-3.2276,-3.2284,-3.242,0,0,0,0,0,0,-3.1664,-3.1687,-3.1747,-3.1764,-3.1783,-3.1939,-3.1821,-3.1816,-3.185,-3.1838,-3.1862,-3.1861,-3.1836,-3.1955,-3.1974,-3.2057,-3.1898,-3.2259,-3.2271,-3.2281,-3.2408,-3.2433,-3.2454,0,0,0,0,0,-3.1656,-3.1783,-3.1751,-3.177,-3.1858,-3.1944,-3.1955,-3.1923,-3.1858,-3.1917,-3.1916,-3.186,-3.2037,-3.1968,-3.1988,-3.2074,-3.2254,-3.2267,-3.228,-3.2398,-3.2428,-3.2453,0,0,0,0,0,0,-3.1776,-3.1784,-3.1749,-3.1885,-3.1915,-3.1926,-3.2,-3.1956,-3.2005,-3.1992,-3.1951,-3.1957,-3.2079,-3.2088,-3.201,-3.2228,-3.2134,-3.2152,-3.2217,-3.2245,-3.2268,-3.2262,-3.1904,0,0,0,0,0,-3.1818,-3.1888,-3.1891,-3.2011,-3.2028,-3.2012,-3.2049,-3.2022,-3.2051,-3.2063,-3.207,-3.2101,-3.2163,-3.2205,-3.2262,-3.241,-3.2413,-3.2479,-3.2502,-3.2521,-3.2536,-3.2614,-3.2643,-3.2331,-3.2331,-3.2331,0,0,-3.1906,-3.1919,-3.1966,-3.2036,-3.2056,-3.2128,-3.2023,-3.2105,-3.2158,-3.2075,-3.2182,-3.2189,-3.2221,-3.2352,-3.241,-3.2363,-3.2623,-3.2538,-3.2552,-3.2558,-3.2631,-3.266,-3.2686,-3.234,-3.2339,-3.2337,0,0,-3.2103,-3.2121,-3.2222,-3.2244,-3.2276,-3.2264,-3.2289,-3.2307,-3.2308,-3.2415,-3.2354,-3.2418,-3.2526,-3.2551,-3.2578,-3.2785,-3.2735,-3.2805,-3.2923,-3.3,-3.3024,-3.3046,-3.3119,-3.3145,-3.2821,-3.2822,-3.2822,0,-3.2208,-3.2315,-3.228,-3.2365,-3.2397,-3.2326,-3.2428,-3.2452,-3.2501,-3.2525,-3.2472,-3.2606,-3.2623,-3.2758,-3.2809,-3.2833,-3.286,-3.2801,-3.3024,-3.3045,-3.3064,-3.3133,-3.3161,-3.283,-3.2829,-3.2828,-3.2827,0,-3.2442,-3.2518,-3.2596,-3.2644,-3.2686,-3.2779,-3.2758,-3.2804,-3.2774,-3.2769,-3.2879,-3.2896,-3.2955,-3.2986,-3.2957,-3.3117,-3.3087,-3.303,-3.2935,-3.3103,-3.3167,-3.3193,-3.2842,-3.2839,-3.2836,-3.2834,0,0,-3.2715,-3.2743,-3.2772,-3.2793,-3.2823,-3.2881,-3.2971,-3.3029,-3.3069,-3.3106,-3.318,-3.3274,-3.3221,-3.3252,-3.3226,-3.3294,-3.3455,-3.3228,-3.3228,-3.3268,-3.3632,-3.3673,-3.3705,-3.3423,-3.3428,-3.3432,-3.3628,0,-3.2909,-3.3065,-3.3036,-3.3188,-3.3256,-3.319,-3.3269,-3.3296,-3.3294,-3.3351,-3.3349,-3.3415,-3.3341,-3.3359,-3.3423,-3.3422,-3.3528,-3.3408,-3.3491,-3.3495,-3.3484,-3.3738,-3.3782,-3.3967,-3.3653,-3.3658,-3.3661,0,-3.3157,-3.3202,-3.3361,-3.338,-3.3407,-3.3479,-3.3529,-3.3586,-3.3615,-3.3609,-3.3644,-3.3605,-3.3695,-3.3601,-3.3724,-3.3643,-3.3676,-3.3681,-3.3687,-3.3692,-3.3587,-3.3749,-3.4025,-3.4052,-3.37,-3.3697,-3.3694,0,-3.3338,-3.3439,-3.3547,-3.3567,-3.3592,-3.3644,-3.3657,-3.3681,-3.3717,-3.3762,-3.3785,-3.384,-3.387,-3.3914,-3.3891,-3.3825,-3.4018,-3.3922,-3.4015,-3.4015,-3.4057,-3.4054,-3.4341,-3.4081,-3.4081,-3.408,-3.408,0,-3.3557,-3.3656,-3.3628,-3.3694,-3.3803,-3.377,-3.3879,-3.3884,-3.3906,-3.3972,-3.3919,-3.3982,-3.3949,-3.401,-3.3993,-3.4097,-3.4112,-3.4108,-3.4102,-3.4112,-3.4112,-3.4132,-3.4117,-3.4088,-3.4086,-3.4085,-3.4083,0,-3.3777,-3.3762,-3.3875,-3.389,-3.3896,-3.3976,-3.3988,-3.405,-3.4044,-3.4128,-3.4145,-3.4136,-3.4205,-3.4187,-3.4262,-3.4251,-3.4382,-3.4361,-3.4372,-3.4366,-3.4459,-3.445,-3.4766,-3.4805,-3.4523,-3.4525,-3.4528,0,-3.3917,-3.3991,-3.4014,-3.4055,-3.4071,-3.4137,-3.4174,-3.4144,-3.4185,-3.4225,-3.4282,-3.4346,-3.4395,-3.4508,-3.4508,-3.4565,-3.4544,-3.4651,-3.4552,-3.4559,-3.4543,-3.4539,-3.4545,-3.467,-3.4673,-3.4676,-3.4678,0,-3.4166,-3.4155,-3.4211,-3.4264,-3.431,-3.4351,-3.4386,-3.4423,-3.4395,-3.4444,-3.4514,-3.4552,-3.4629,-3.4693,-3.4745,-3.4758,-3.4714,-3.471,-3.4734,-3.4743,-3.4746,-3.4744,-3.4423,-3.4702,-3.4699,-3.4698,-3.4696,-3.4695,-3.4349,-3.4412,-3.4438,-3.4501,-3.4525,-3.456,-3.4618,-3.462,-3.4677,-3.4737,-3.4716,-3.4796,-3.4823,-3.4889,-3.4909,-3.4971,-3.493,-3.4966,-3.4974,-3.4983,-3.4994,-3.4738,-3.4981,-3.498,-3.4979,-3.4979,-3.4978,0,-3.4594,-3.4608,-3.4667,-3.4718,-3.4768,-3.4723,-3.476,-3.4805,-3.4875,-3.4905,-3.4955,-3.5035,-3.5097,-3.5102,-3.5161,-3.5209,-3.519,-3.5225,-3.522,-3.5224,-3.5028,-3.5,-3.5239,-3.5239,-3.5239,-3.5239,-3.5239,-3.5239,-3.4727,-3.4831,-3.4824,-3.4939,-3.4952,-3.5029,-3.5054,-3.5086,-3.5109,-3.5201,-3.5252,-3.5255,-3.5275,-3.5334,-3.5389,-3.5389,-3.5412,-3.5455,-3.5447,-3.5264,-3.5238,-3.5213,-3.5187,-3.5461,-3.5461,-3.5638,-3.5639,-3.5641]},{"header":{"parameterUnit":"m.s-1","parameterCategory":1,"la1":30.2991,"la2":30.254,"lo1":-89.0895,"lo2":-89.0444,"dy":0.0017,"dx":0.0017,"nx":28,"ny":28,"refTime":"2024-10-10T21:00:00:Z","depth":0,"parameterNumber":3,"parameterNumberName":"V-component_of_WINDS"},"data":[0,0,0,0,0,0,0,0,0,0,0,0,0,0,0,0,0,0,0,0,0,0,0,0,0,0,0,0,0,0,0,0,0,0,0,0,0,0,0,0,0,0,0,0,0,0,0,0,0,0,0,0,0,0,0,0,0,0,-0.5476,-0.5476,0,-0.5535,-0.5536,-0.5537,-0.5601,-0.5602,-0.5603,-0.5603,-0.5666,-0.5667,-0.5668,0,0,0,0,0,0,0,0,0,0,0,0,0,-0.5418,-0.5419,-0.5475,-0.5476,-0.5477,-0.5535,-0.5536,-0.5537,-0.5601,-0.5602,-0.5603,-0.5604,-0.5666,-0.5667,-0.5668,0,0,0,0,0,0,0,0,0,0,0,0,0,-0.5457,-0.5419,-0.5475,-0.5516,-0.552,-0.5535,-0.5536,-0.5537,-0.56,-0.5602,-0.5603,-0.5604,-0.5665,-0.5667,-0.5668,-0.5648,0,0,-0.5671,-0.5672,0,0,0,0,0,0,0,0,-0.5454,-0.5459,-0.5509,-0.5513,-0.5518,-0.5562,-0.5539,-0.5574,-0.56,-0.557,-0.5603,-0.5605,-0.563,-0.5634,-0.5643,-0.5651,-0.5654,-0.5672,-0.5672,-0.5673,-0.5673,0,0,0,0,0,0,0,-0.5452,-0.5457,-0.5499,-0.551,-0.5515,-0.5531,-0.5538,-0.5546,-0.5592,-0.5573,-0.5577,-0.5584,-0.5633,-0.5641,-0.5645,-0.5655,-0.5672,-0.5673,-0.5673,-0.5674,-0.565,-0.5649,0,0,0,0,0,0,-0.5443,-0.5454,-0.5497,-0.5501,-0.5489,-0.5531,-0.5539,-0.5546,-0.5592,-0.56,-0.5582,-0.5586,-0.5639,-0.5643,-0.5647,-0.5628,-0.5673,-0.5674,-0.5675,-0.5651,-0.565,-0.5648,0,0,0,0,0,0,-0.5441,-0.5446,-0.5495,-0.5479,-0.5486,-0.5531,-0.5538,-0.5547,-0.5555,-0.5599,-0.5608,-0.5582,-0.564,-0.5645,-0.5647,-0.5631,-0.5675,-0.5676,-0.5653,-0.5651,-0.5649,-0.5588,0,0,0,0,0,0,-0.5439,-0.5445,-0.5438,-0.5478,-0.5487,-0.5494,-0.5537,-0.5547,-0.5557,-0.5563,-0.5602,-0.5609,-0.5641,-0.5645,-0.5648,-0.5633,-0.5677,-0.5655,-0.5652,-0.5649,-0.5591,-0.5584,-0.5577,0,0,0,0,0,-0.5437,-0.5418,-0.5437,-0.5442,-0.5479,-0.5492,-0.5498,-0.5534,-0.5556,-0.5549,-0.5577,-0.5608,-0.5631,-0.5645,-0.5649,-0.5634,-0.5656,-0.5653,-0.565,-0.5594,-0.5585,-0.5577,0,0,0,0,0,0,-0.5376,-0.5424,-0.5446,-0.544,-0.5461,-0.5503,-0.5496,-0.5523,-0.554,-0.5545,-0.559,-0.5598,-0.5595,-0.5615,-0.5628,-0.5617,-0.5648,-0.5646,-0.5605,-0.5596,-0.5589,-0.5585,-0.5678,0,0,0,0,0,-0.5361,-0.5368,-0.541,-0.5401,-0.5411,-0.5451,-0.5459,-0.5485,-0.551,-0.5519,-0.5548,-0.557,-0.5583,-0.5591,-0.5605,-0.5594,-0.5604,-0.5586,-0.5578,-0.5572,-0.557,-0.5566,-0.5559,-0.5638,-0.5638,-0.5638,0,0,-0.5332,-0.5359,-0.5361,-0.5389,-0.5409,-0.5416,-0.5459,-0.5463,-0.5469,-0.552,-0.5524,-0.5545,-0.5574,-0.5569,-0.5569,-0.5585,-0.555,-0.5568,-0.5563,-0.5565,-0.5562,-0.5555,-0.5548,-0.5636,-0.5636,-0.5637,0,0,-0.5282,-0.5303,-0.5298,-0.5316,-0.5346,-0.5373,-0.5371,-0.5409,-0.5425,-0.5429,-0.5468,-0.5475,-0.5495,-0.5514,-0.5527,-0.5483,-0.5512,-0.5486,-0.5449,-0.5445,-0.5439,-0.5434,-0.5419,-0.5413,-0.5483,-0.5483,-0.5483,0,-0.5242,-0.5253,-0.5291,-0.5294,-0.5305,-0.5351,-0.5346,-0.5363,-0.5395,-0.5402,-0.542,-0.5447,-0.547,-0.5471,-0.546,-0.5468,-0.5468,-0.5482,-0.5437,-0.5432,-0.5427,-0.5414,-0.5408,-0.548,-0.548,-0.5481,-0.5481,0,-0.5202,-0.5209,-0.5201,-0.5231,-0.5241,-0.524,-0.5279,-0.5285,-0.531,-0.5335,-0.5339,-0.5367,-0.5388,-0.539,-0.5414,-0.5394,-0.5403,-0.5428,-0.546,-0.5416,-0.5404,-0.5399,-0.5475,-0.5476,-0.5477,-0.5478,0,0,-0.5117,-0.5167,-0.5164,-0.5178,-0.5213,-0.5219,-0.522,-0.524,-0.5244,-0.5265,-0.5267,-0.5283,-0.5306,-0.532,-0.5347,-0.5343,-0.5307,-0.5369,-0.537,-0.5357,-0.5287,-0.5268,-0.5262,-0.5326,-0.5325,-0.5325,-0.5285,0,-0.5074,-0.5078,-0.5112,-0.5106,-0.5113,-0.5156,-0.5157,-0.5179,-0.5202,-0.5212,-0.5237,-0.5248,-0.5278,-0.5286,-0.5284,-0.5312,-0.5294,-0.5315,-0.533,-0.533,-0.5322,-0.5255,-0.5236,-0.5197,-0.528,-0.5279,-0.5279,0,-0.5024,-0.5041,-0.5036,-0.5071,-0.5075,-0.5075,-0.5096,-0.5104,-0.513,-0.5147,-0.5162,-0.5192,-0.5196,-0.5225,-0.5231,-0.5245,-0.5253,-0.5267,-0.5266,-0.527,-0.5302,-0.5258,-0.5185,-0.518,-0.5271,-0.5272,-0.5273,0,-0.4963,-0.4985,-0.4984,-0.4995,-0.5036,-0.5035,-0.5052,-0.5079,-0.5088,-0.5106,-0.5113,-0.5131,-0.5141,-0.5155,-0.519,-0.5208,-0.5192,-0.5224,-0.5207,-0.5206,-0.5203,-0.5203,-0.5131,-0.5205,-0.5206,-0.5206,-0.5206,0,-0.4912,-0.4908,-0.4958,-0.4957,-0.4953,-0.4993,-0.4988,-0.5009,-0.5032,-0.5037,-0.5076,-0.508,-0.5125,-0.5134,-0.5161,-0.5162,-0.5166,-0.5181,-0.5188,-0.5178,-0.5176,-0.5185,-0.5189,-0.5204,-0.5204,-0.5205,-0.5205,0,-0.4844,-0.4877,-0.488,-0.4918,-0.4927,-0.4923,-0.4956,-0.4957,-0.4982,-0.4988,-0.4992,-0.5031,-0.5044,-0.5079,-0.5101,-0.512,-0.5113,-0.5127,-0.5104,-0.5109,-0.5091,-0.5092,-0.5023,-0.5016,-0.5094,-0.5093,-0.5092,0,-0.481,-0.4807,-0.4845,-0.4851,-0.4866,-0.4875,-0.4884,-0.4923,-0.4931,-0.496,-0.4958,-0.4974,-0.4988,-0.5007,-0.5038,-0.5055,-0.5069,-0.5044,-0.5072,-0.5062,-0.507,-0.507,-0.5071,-0.5038,-0.5037,-0.5036,-0.5035,0,-0.4746,-0.4763,-0.4775,-0.4792,-0.4803,-0.4819,-0.4837,-0.4839,-0.4883,-0.489,-0.4903,-0.4915,-0.4937,-0.4952,-0.4974,-0.4992,-0.5021,-0.5026,-0.5023,-0.5013,-0.5001,-0.5008,-0.5089,-0.5028,-0.5029,-0.5029,-0.503,-0.503,-0.4695,-0.4695,-0.4721,-0.4733,-0.475,-0.4766,-0.477,-0.4795,-0.4806,-0.4827,-0.4849,-0.4859,-0.4885,-0.4917,-0.4933,-0.4942,-0.4958,-0.4953,-0.4953,-0.4951,-0.4947,-0.4998,-0.4946,-0.4947,-0.4947,-0.4947,-0.4947,0,-0.4634,-0.4653,-0.4664,-0.4687,-0.4697,-0.4722,-0.4743,-0.475,-0.4759,-0.478,-0.4793,-0.4808,-0.4823,-0.4854,-0.4872,-0.4874,-0.4888,-0.4877,-0.4878,-0.4882,-0.4931,-0.4933,-0.4866,-0.4866,-0.4866,-0.4866,-0.4866,-0.4866,-0.4604,-0.4605,-0.4624,-0.4633,-0.4652,-0.4663,-0.4673,-0.4688,-0.4705,-0.472,-0.4732,-0.4752,-0.4777,-0.4797,-0.4812,-0.4821,-0.4826,-0.4812,-0.4825,-0.4871,-0.4879,-0.4886,-0.4887,-0.4812,-0.4812,-0.4775,-0.4775,-0.4774]}]]